Regional Weather Roundup
Issued by NWS

Home | Current Version | Previous Version | Graphics & Text | Print | Product List | Glossary On
Versions: 1 2 3 4 5 6 7 8 9 10 11 12 13 14 15 16 17 18 19 20 21 22 23 24 25 26 27 28 29 30 31 32 33 34 35 36 37 38 39 40 41 42 43 44 45 46 47 48 49 50
000
ASUS43 KIND 100359
RWRIN

WEATHER ROUNDUP FOR INDIANA
NATIONAL WEATHER SERVICE INDIANAPOLIS IN
1200 AM EDT THU JUL 10 2014

NOTE: "FAIR" INDICATES FEW OR NO CLOUDS BELOW 12,000 FEET WITH NO
SIGNIFICANT WEATHER AND/OR OBSTRUCTIONS TO VISIBILITY.

* - STATION DOES NOT REPORT WEATHER SUCH AS PRECIPITATION OR FOG.

+ - STATION NOT QUALITY CONTROLLED BY THE NATIONAL WEATHER SERVICE.
    USE DATA WITH CAUTION...ESPECIALLY DEWPOINT AND RELATIVE
    HUMIDITY OBSERVATIONS.

INZ001>003-010>013-019-020-100500-
NORTHWEST INDIANA

CITY           SKY/WX    TMP DP  RH WIND       PRES   REMARKS
RENSSELAER +   PTCLDY    63  61  94 NE3       30.06R
VALPARAISO     CLEAR     62  56  80 CALM      30.06R

$$

LMZ046-743>745-100500-
SOUTHERN LAKE MICHIGAN

STATION/POSITION TIME  TEMP WIND        PRES
                       AIR  DIR/SP/G
                 (UTC) (F)  (DEG/KT/KT) (MB)
MICHIGAN CITY    0300   68   30/  7/  8   N/A

$$

INZ004-005-014>016-021>024-100500-
NORTH CENTRAL INDIANA

CITY           SKY/WX    TMP DP  RH WIND       PRES   REMARKS
GOSHEN         CLEAR     62  56  80 N6        30.05R
SOUTH BEND     CLEAR     62  54  74 N6        30.07R

$$

INZ006>009-017-018-025>027-100500-
NORTHEAST INDIANA

CITY           SKY/WX    TMP DP  RH WIND       PRES   REMARKS
ANGOLA *+      CLEAR     61  57  88 CALM      30.05S
FORT WAYNE     MOCLDY    66  56  70 N5        30.05R

$$

INZ028-029-035-036-043>045-051>053-100500-
WEST CENTRAL INDIANA

CITY           SKY/WX    TMP DP  RH WIND       PRES   REMARKS
GREENCASTLE +  CLEAR     61  57  88 CALM      30.04S
LAFAYETTE      CLEAR     65  59  81 N6        30.04R
TERRE HAUTE    CLEAR     64  59  83 CALM      30.04R

$$

INZ030>032-037>040-046>048-054>057-064-065-100500-
CENTRAL INDIANA

CITY           SKY/WX    TMP DP  RH WIND       PRES   REMARKS
INDIANAPOLIS   CLEAR     68  56  65 W3        30.03R
-EAGLE CREEK   CLEAR     67  59  75 W3        30.03R
KOKOMO *+      CLOUDY    70  57  64 NE5       30.04R
MT COMFORT *+  CLEAR     61 N/A N/A CALM      30.04S
SHELBYVILLE    CLEAR     64  57  78 CALM      30.03R

$$

INZ033-034-041-042-049-050-058-059-100500-
EAST CENTRAL INDIANA

CITY           SKY/WX    TMP DP  RH WIND       PRES   REMARKS
MUNCIE         PTCLDY    66  57  72 CALM      30.04R

$$

INZ060-061-067>069-081>083-085>088-100500-
SOUTHWEST INDIANA

CITY           SKY/WX    TMP DP  RH WIND       PRES   REMARKS
EVANSVILLE     CLEAR     74  63  68 N5        30.02R
HUNTINGBURG *+ CLEAR     68  63  83 CALM      30.03S

$$

INZ062-063-066-070>080-084-089>092-100500-
SOUTH CENTRAL AND SOUTHEAST INDIANA

CITY           SKY/WX    TMP DP  RH WIND       PRES   REMARKS
BLOOMINGTON    CLEAR     63  60  90 CALM      30.04R

$$



USA.gov is the U.S. government's official web portal to all federal, state and local government web resources and services.